Weather History for KTWF - January, 2013

Change the Weather History Date:

Monday, January 7, 2013

  Actual Average Record
Temperature  
Mean Temperature 22 °F -  
Max Temperature 38 °F 37 °F 51 °F (1983)
Min Temperature 5 °F 21 °F -9 °F (1982)
Degree Days  
Heating Degree Days 43 36  
Month to date heating degree days 385 253  
Since 1 July heating degree days 2433 2820  
Cooling Degree Days 0 0  
Month to date cooling degree days 0 0  
Year to date cooling degree days 0 0  
Moisture  
Dew Point 18 °F    
Average Humidity 71    
Maximum Humidity 81    
Minimum Humidity 60    
Precipitation  
Precipitation 0.01 in 0.05 in 0.09 in (2004)
Month to date precipitation 0.01 0.33  
Year to date precipitation 0.01 0.33  
Sea Level Pressure  
Sea Level Pressure 30.19 in    
Wind  
Wind Speed 8 mph (South)    
Max Wind Speed 17 mph    
Max Gust Speed 22 mph    
Visibility 8 miles    
Events Rain , Snow    
T = Trace of Precipitation, MM = Missing Value Source: NWS Daily Summary

Daily Weather History Graph

Daily Weather History Graph

Search for Another Location

Airport or City:

Trip Planner

Search our weather history database for the weather conditions in past years. The results will help you decide how hot, cold, wet, or windy it might be!

Date:

Astronomy

Jan. 07, 2013 Rise Set
Actual Time 8:07 AM MST 5:21 PM MST
Civil Twilight 7:35 AM MST 5:53 PM MST
Nautical Twilight 7:00 AM MST 6:28 PM MST
Astronomical Twilight 6:26 AM MST 7:02 PM MST
Moon 3:34 AM MST (1/7) 1:37 PM MST (1/7)
Length of Visible Light 10h 17m
Length of Day
9h 14m
Waning Crescent, 22% of the Moon is Illuminated
Jan 7
Waning Crescent
Jan 11
New
Jan 18
First Quarter
Jan 26
Full
Feb 3
Last Quarter

Hourly Weather History & Observations

Time (MST) Temp. Windchill Dew Point Humidity Pressure Visibility Wind Dir Wind Speed Gust Speed Precip Events Conditions
12:53 AM 12.9 °F 0.7 °F 5.0 °F 71% 30.27 in 10.0 mi South 9.2 mph - N/A   Clear
1:53 AM 15.1 °F 1.1 °F 5.0 °F 64% 30.25 in 10.0 mi South 12.7 mph - N/A   Clear
2:53 AM 12.9 °F 0.7 °F 3.9 °F 67% 30.27 in 10.0 mi South 9.2 mph - N/A   Clear
3:53 AM 14.0 °F 0.5 °F 5.0 °F 67% 30.26 in 10.0 mi South 11.5 mph - N/A   Clear
4:53 AM 7.0 °F -1.7 °F 1.0 °F 77% 30.30 in 10.0 mi SE 4.6 mph - N/A   Clear
5:53 AM 10.9 °F -0.8 °F 3.0 °F 70% 30.28 in 10.0 mi SSE 8.1 mph - N/A   Clear
6:53 AM 10.0 °F -0.9 °F 3.9 °F 76% 30.27 in 10.0 mi ESE 6.9 mph - N/A   Clear
7:53 AM 15.1 °F 6.4 °F 7.0 °F 70% 30.28 in 10.0 mi East 5.8 mph - N/A   Clear
8:53 AM 12.9 °F - 5.0 °F 71% 30.31 in 10.0 mi Calm Calm - N/A   Clear
9:53 AM 19.0 °F 10.0 °F 10.0 °F 68% 30.29 in 10.0 mi SSE 6.9 mph - N/A   Clear
10:53 AM 24.1 °F 15.2 °F 12.9 °F 62% 30.28 in 10.0 mi South 8.1 mph - N/A   Clear
11:53 AM 21.0 °F - 12.9 °F 71% 30.30 in 10.0 mi Calm Calm - N/A   Overcast
12:53 PM 27.0 °F 23.0 °F 16.0 °F 63% 30.22 in 10.0 mi NNE 3.5 mph - N/A   Scattered Clouds
1:53 PM 24.1 °F 19.7 °F 14.0 °F 65% 30.21 in 10.0 mi East 3.5 mph - N/A   Overcast
2:53 PM 26.1 °F 21.9 °F 15.1 °F 63% 30.21 in 7.0 mi NNE 3.5 mph - 0.00 in Snow Light Snow
3:00 PM 26.6 °F 22.6 °F 15.8 °F 64% 30.12 in 1.8 mi North 3.5 mph - 0.00 in Snow Light Snow
3:14 PM 24.8 °F - 17.6 °F 74% 30.13 in 0.8 mi Calm Calm - 0.00 in Snow Light Snow
4:00 PM 24.8 °F - 19.4 °F 80% 30.12 in 1.2 mi Calm Calm - 0.00 in Snow Light Snow
4:15 PM 24.8 °F - 19.4 °F 80% 30.13 in 3.0 mi Calm Calm - 0.00 in Snow Light Snow
4:31 PM 24.8 °F 20.5 °F 19.4 °F 80% 30.12 in 2.0 mi Variable 3.5 mph - 0.00 in Snow Light Snow
4:42 PM 24.8 °F 19.1 °F 21.2 °F 86% 30.11 in 1.8 mi ESE 4.6 mph - 0.00 in Snow Light Snow
4:53 PM 28.0 °F 20.8 °F 21.9 °F 78% 30.21 in 2.0 mi South 6.9 mph - 0.00 in Snow Light Snow
5:01 PM 33.8 °F 25.8 °F 28.4 °F 81% 30.11 in 5.0 mi SSW 10.4 mph - 0.00 in   Haze
5:50 PM 35.6 °F 27.1 °F 28.4 °F 75% 30.11 in 10.0 mi SSW 12.7 mph - 0.00 in   Overcast
5:53 PM 35.1 °F 25.9 °F 28.9 °F 78% 30.18 in 10.0 mi SSW 13.8 mph - 0.00 in   Overcast
6:23 PM 35.6 °F 27.5 °F 30.2 °F 81% 30.12 in 10.0 mi SSW 11.5 mph - N/A   Overcast
6:38 PM 37.4 °F 29.8 °F 30.2 °F 75% 30.12 in 10.0 mi SSW 11.5 mph - 0.00 in Rain Light Rain
6:53 PM 37.0 °F 28.9 °F 30.0 °F 76% 30.18 in 10.0 mi SSW 12.7 mph - 0.00 in   Overcast
7:17 PM 37.4 °F 28.5 °F 30.2 °F 75% 30.10 in 10.0 mi SSW 15.0 mph - 0.00 in   Overcast
7:43 PM 37.4 °F 28.5 °F 30.2 °F 75% 30.11 in 10.0 mi SW 15.0 mph - 0.00 in   Overcast
7:53 PM 37.9 °F 30.0 °F 30.0 °F 73% 30.16 in 10.0 mi SW 12.7 mph - 0.00 in   Overcast
8:53 PM 37.9 °F 30.5 °F 30.0 °F 73% 30.17 in 10.0 mi WSW 11.5 mph - N/A   Overcast
9:53 PM 37.9 °F 29.2 °F 28.9 °F 70% 30.14 in 10.0 mi SW 15.0 mph - N/A   Clear
10:53 PM 36.0 °F 29.0 °F 28.0 °F 73% 30.14 in 10.0 mi WSW 9.2 mph - N/A   Partly Cloudy
11:53 PM 37.0 °F 31.0 °F 28.9 °F 73% 30.16 in 10.0 mi West 8.1 mph - N/A   Overcast